Regional Weather Roundup
Issued by NWS

Home | Current Version | Previous Version | Graphics & Text | Print | Product List | Glossary On
Versions: 1 2 3 4 5 6 7 8 9 10 11 12 13 14 15 16 17 18 19 20 21 22 23 24 25 26 27
000
ASUS45 KTFX 261410
RWRMT
MONTANA REGIONAL WEATHER ROUNDUP
NATIONAL WEATHER SERVICE GREAT FALLS MT
800 AM MDT TUE SEP 26 2017

NOTE: "FAIR" INDICATES FEW OR NO CLOUDS BELOW 12000 FEET WITH NO
SIGNIFICANT WEATHER AND/OR OBSTRUCTIONS TO VISIBILITY.

MTZ001>007-043-261500-
WEST OF THE DIVIDE

CITY           SKY/WX    TMP DP  RH WIND       PRES   REMARKS
KALISPELL      PTCLDY    37  37 100 W3        30.18R FOG
MISSOULA       LGT RAIN  46  45  96 CALM      30.21R
BUTTE          CLOUDY    39  38  96 S5        30.21R
MULLAN PASS    PTCLDY    41  37  86 NW6       30.22R
ANACONDA         N/A     43  39  87 CALM      30.19R
DEER LODGE       N/A     45  43  93 CALM      30.22R
EUREKA           N/A     39  37  93 MISG      30.19R
HAMILTON         N/A     48  41  76 CALM      30.21R
LIBBY            N/A     37  37 100 CALM      30.18R VSB 1/2
PLAINS           N/A     47  42  82 CALM      30.17R
RONAN            N/A     50  47  89 CALM      30.20R
THOMPSON FALLS   N/A     47  44  89 CALM      30.22R
$$

MTZ008-052>055-261500-
SOUTHWEST MONTANA

CITY           SKY/WX    TMP DP  RH WIND       PRES   REMARKS
BOZEMAN        CLOUDY    46  41  82 SE7       30.19R
DILLON         CLOUDY    43  37  79 SW6       30.20R
W YELLOWSTONE  CLOUDY    34  32  93 CALM      30.24R
ENNIS          CLOUDY    43  39  87 CALM      30.25R
THREE FORKS      N/A     44  41  89 CALM      30.16R
TWIN BRIDGES     N/A     40  34  79 CALM      30.16R
$$

MTZ009-010-012-014-046-048-049-054-261500-
EAST SLOPES AND CENTRAL MONTANA

CITY           SKY/WX    TMP DP  RH WIND       PRES   REMARKS
CUT BANK       MOCLDY    46  41  82 W13       30.10R
GREAT FALLS    CLEAR     46  39  76 SW10      30.11R
MALMSTROM AFB  MOCLDY    50  41  70 W6        30.12R
HELENA         CLEAR     46  41  82 CALM      30.16R
BOWMANS CRNR     N/A     41  38  88 SW9       30.12R
CHOTEAU          N/A     45  39  81 SW6       30.13R
FAIRFIELD      CLOUDY    46  38  75 SW3       30.11R
POWER            N/A     42  38  86 W3        30.11R
RAYNESFORD       N/A     47  38  72 CALM      30.12R
ULM            MOCLDY    44  40  85 S7        30.13R
$$

MTZ011-013-016-021-045-047-050-051-261500-
NORTH CENTRAL MONTANA

CITY           SKY/WX    TMP DP  RH WIND       PRES   REMARKS
HAVRE          CLOUDY    50  41  71 SW10      30.05R
LEWISTOWN      CLOUDY    44  37  76 CALM      30.11R
N BAR RANCH    CLOUDY    46  37  71 NW5       30.14R
CHINOOK          N/A     43  41  93 E3        30.06R
DENTON           N/A     49  42  75 SW7       30.07R
GEYSER         MOCLDY    48  39  73 W7        30.11R
JUDITH GAP     MOCLDY    44  36  73 SW8       30.13R
WINIFRED       LGT RAIN  50  39  66 NW7       30.09R
$$

MTZ017>020-022>027-061-062-261500-
NORTHEAST MONTANA

CITY           SKY/WX    TMP DP  RH WIND       PRES   REMARKS
GLASGOW        CLEAR     39  38  96 E6        30.10R
JORDAN           N/A     31  31 100 CALM      30.10R
SIDNEY           N/A    N/A N/A N/A MISG        N/A
WOLF POINT     FOG       40  39  97 CALM      30.12R VSB<1/4
MALTA          CLEAR     41  39  93 CALM      30.08R
PLENTYWOOD       N/A     46  46 100 CALM      30.11S
POPLAR           N/A     45  43  93 CALM      30.12R VSB 1/2
SCOBEY           N/A     33  28  82 CALM      30.08S VSB 0
$$

MTZ028>42-056>058-261500-
SOUTHCENTRAL AND SOUTHEAST MONTANA

CITY           SKY/WX    TMP DP  RH WIND       PRES   REMARKS
BAKER          CLOUDY    44  41  89 NW6       30.11R
BILLINGS       PTCLDY    47  38  71 W14       30.13R
LIVINGSTON     CLOUDY    46  38  73 W8        30.17R
MILES CITY     FOG       38  37  97 W6        30.12R VSB<1/4
BIG TIMBER     CLEAR     48  37  66 W20G25    30.17R
EKALAKA          N/A     40  36  86 CALM      30.07R
HARLOWTON      MOCLDY    45  40  84 MISG      30.13R
LAUREL           N/A     45  39  81 W5        30.15R
$$

REGIONAL REPORTS...DAKOTAS

CITY           SKY/WX    TMP DP  RH WIND       PRES   REMARKS
WILLISTON      CLOUDY    48  45  89 S3        30.11R
MINOT          CLOUDY    49  45  86 CALM      30.11S
DICKINSON      LGT RAIN  45  44  97 E6        30.08S
BEACH          CLOUDY    45  45 100 NW5       30.13R
CROSBY         CLOUDY    45  46 100 CALM      30.12S
TIOGA          FOG       45  45 100 SE5       30.12S VSB 1
WATFORD CITY   FOG       41  41 100 CALM      30.11R VSB<1/4
BISMARCK       CLOUDY    47  46  97 CALM      30.13R
GRAND FORKS    LGT RAIN  49  49 100 N12       30.06F
FARGO          RAIN      50  50 100 NW9       30.05R FOG
BUFFALO SD       N/A     44  43  96 W8        30.03R
RAPID CITY     SUNNY     43  41  93 N5        30.12R
$$

REGIONAL REPORTS...WYOMING/IDAHO/WASHINGTON

CITY           SKY/WX    TMP DP  RH WIND       PRES   REMARKS
GILLETTE       MOSUNNY   44  35  70 W10       30.12R
SHERIDAN       CLOUDY    39  36  89 NE5       30.14R
BUFFALO WY     MOCLDY    47  29  49 W5        30.15R
CODY           CLOUDY    39  34  82 CALM      30.18R
IDAHO FALLS    CLOUDY    42  35  76 CALM      30.21R
SALMON         CLOUDY    45  42  89 CALM      30.23R
BOISE          PTCLDY    51  37  58 S7        30.15R
SPOKANE        MOCLDY    50  44  80 S6        30.17R
$$

REGIONAL REPORTS...ALBERTA

CITY           SKY/WX    TMP DP  RH WIND       PRES   REMARKS
EDMONTON       PTCLDY    50  46  87 W7        30.01R
CALGARY        MOCLDY    54  37  54 NW6       30.09R
LETHBRIDGE     MOCLDY    48  39  71 W8        30.07R
MEDICINE HAT   MOCLDY    48  37  66 SW7       30.04R
$$

REGIONAL REPORTS...SASKATCHEWAN

CITY           SKY/WX    TMP DP  RH WIND       PRES   REMARKS
SWIFT CURRENT  CLOUDY    43  36  75 S10       30.02R
REGINA         MOCLDY    37  37 100 SE9       30.09S WCI  31
SASKATOON      MOCLDY    46  37  71 S9        30.01R
$$




USA.gov is the U.S. government's official web portal to all federal, state and local government web resources and services.